FW8369 Weather Reports


Display with metric or nautical units.
time (UTC)temp
F
wind
direction
speed
MPH
gust
MPH
rain 1hr
in
rain 24hr
in
rain mn
in
humidity
%
barometer
mb
20260906153904 82 320 1.0 2.0 0.00 0.66 0.66 92 1008.1
20260906153404 82 335 1.0 2.0 0.00 0.66 0.66 92 1008.1
20260906152904 82 355 1.0 3.0 0.00 0.66 0.66 91 1008.1
20260906152403 82 4 1.0 3.0 0.00 0.66 0.66 91 1008.2
20260906151904 82 343 2.0 3.0 0.00 0.66 0.66 90 1008.2
20260906151404 82 332 1.0 3.0 0.00 0.66 0.66 90 1008.1
20260906150904 83 350 2.0 3.0 0.00 0.66 0.66 90 1008.1
20260906150404 83 331 1.0 2.0 0.00 0.66 0.66 90 1008.2
20260906145903 83 332 2.0 3.0 0.00 0.66 0.66 89 1008.3
20260906145404 83 354 1.0 3.0 0.00 0.66 0.66 89 1008.3
20260906144904 83 353 1.0 3.0 0.00 0.66 0.66 88 1008.3
20260906144404 84 61 1.0 5.0 0.00 0.66 0.66 87 1008.3
20260906143904 84 317 1.0 2.0 0.00 0.66 0.66 87 1008.3
20260906142904 83 338 1.0 2.0 0.00 0.66 0.66 87 1008.4
20260906141404 83 13 1.0 3.0 0.00 0.66 0.66 88 1008.3
20260906140903 83 332 1.0 2.0 0.00 0.66 0.66 88 1008.3
20260906140404 83 333 0.0 1.0 0.00 0.66 0.66 88 1008.3
20260906135904 83 336 0.0 2.0 0.00 0.66 0.66 88 1008.3
20260906135404 83 332 0.0 1.0 0.00 0.66 0.66 89 1008.2
20260906134903 83 335 0.0 2.0 0.00 0.66 0.66 89 1008.2
20260906134404 83 339 0.0 1.0 0.00 0.66 0.66 89 1008.1
20260906133904 83 346 0.0 2.0 0.00 0.66 0.66 89 1008.2
20260906132404 83 327 1.0 2.0 0.00 0.66 0.66 89 1008.2
20260906131904 83 333 1.0 2.0 0.00 0.66 0.66 89 1008.2
20260906131404 83 24 1.0 3.0 0.00 0.66 0.66 89 1008.2
20260906130903 84 25 1.0 3.0 0.00 0.66 0.66 89 1008.2
20260906130404 84 344 3.0 3.0 0.00 0.66 0.66 87 1008.1
20260906125904 84 323 1.0 2.0 0.00 0.66 0.66 88 1008.0
20260906125405 84 331 1.0 2.0 0.00 0.66 0.66 88 1007.9
20260906124904 84 327 0.0 2.0 0.00 0.66 0.66 88 1008.0
20260906124404 84 13 1.0 2.0 0.00 0.66 0.66 88 1008.0
20260906123904 84 48 1.0 5.0 0.00 0.66 0.66 88 1007.9
20260906123403 84 2 1.0 3.0 0.00 0.66 0.66 87 1007.9
20260906122904 84 342 1.0 2.0 0.00 0.66 0.66 86 1007.8
20260906122404 84 357 1.0 3.0 0.00 0.66 0.66 86 1007.8
20260906121904 84 335 2.0 3.0 0.00 0.66 0.66 86 1007.7
20260906121403 84 335 0.0 3.0 0.00 0.66 0.66 86 1007.6
20260906120903 84 325 0.0 1.0 0.00 0.66 0.66 86 1007.6
20260906120403 84 316 1.0 2.0 0.00 0.66 0.66 87 1007.7
20260906115904 84 316 0.0 1.0 0.00 0.66 0.66 87 1007.6
20260906115404 84 326 1.0 1.0 0.00 0.66 0.66 87 1007.5
20260906114904 84 21 1.0 3.0 0.00 0.66 0.66 87 1007.4
20260906114404 84 355 1.0 2.0 0.00 0.66 0.66 87 1007.4
20260906113404 85 27 1.0 3.0 0.00 0.66 0.66 85 1007.3
20260906112904 85 317 1.0 3.0 0.00 0.66 0.66 85 1007.3
20260906111905 85 326 1.0 3.0 0.00 0.66 0.66 84 1007.2
20260906110903 85 2 1.0 3.0 0.00 0.66 0.66 84 1007.2
20260906110404 85 350 0.0 3.0 0.00 0.66 0.66 83 1007.1
20260906105903 85 306 1.0 3.0 0.00 0.66 0.66 83 1007.1
20260906105404 86 320 0.0 2.0 0.00 0.66 0.66 82 1007.0
20260906104903 86 339 1.0 2.0 0.00 0.66 0.66 82 1007.0
20260906104404 86 274 0.0 0.0 0.00 0.66 0.66 82 1006.9
20260906103904 86 273 0.0 1.0 0.00 0.66 0.66 82 1006.9
20260906102904 86 275 0.0 1.0 0.00 0.66 0.66 81 1006.9
20260906102404 86 275 0.0 2.0 0.00 0.66 0.66 81 1006.8
20260906101903 86 282 0.0 2.0 0.00 0.66 0.66 81 1006.7
20260906100904 86 287 1.0 2.0 0.00 0.66 0.66 80 1006.7
20260906100404 86 269 0.0 3.0 0.00 0.66 0.66 80 1006.8
20260906095903 87 259 1.0 3.0 0.00 0.66 0.66 80 1006.8
20260906095403 87 281 1.0 3.0 0.00 0.66 0.66 79 1006.8
20260906094403 88 266 0.0 1.0 0.00 0.66 0.66 77 1006.6
20260906093904 88 269 0.0 2.0 0.00 0.66 0.66 76 1006.6
20260906092904 88 260 1.0 3.0 0.00 0.66 0.66 74 1006.5
20260906091904 88 268 0.0 2.0 0.00 0.66 0.66 73 1006.4
20260906090403 90 265 1.0 3.0 0.00 0.66 0.66 71 1006.4
20260906085904 90 309 1.0 3.0 0.00 0.66 0.66 71 1006.3
20260906085404 91 275 0.0 1.0 0.00 0.66 0.66 71 1006.3
20260906084904 92 258 1.0 2.0 0.00 0.66 0.66 71 1006.4
20260906084404 91 299 0.0 1.0 0.00 0.66 0.66 72 1006.2
20260906083404 89 307 0.0 3.0 0.00 0.66 0.66 75 1006.0
20260906082904 89 336 1.0 3.0 0.00 0.66 0.66 75 1006.0
20260906082403 89 267 1.0 3.0 0.00 0.66 0.66 75 1006.1
20260906081904 89 291 0.0 3.0 0.00 0.66 0.66 76 1006.0
20260906081403 89 305 0.0 2.0 0.00 0.66 0.66 76 1005.9
20260906080904 89 276 0.0 3.0 0.00 0.66 0.66 76 1006.0
20260906080404 89 271 2.0 6.0 0.00 0.66 0.66 76 1006.1
20260906075904 90 334 1.0 3.0 0.00 0.66 0.66 75 1006.2
20260906075404 90 344 1.0 3.0 0.00 0.66 0.66 73 1006.2
20260906074904 90 317 0.0 2.0 0.00 0.66 0.66 74 1006.2
20260906074404 89 271 0.0 1.0 0.00 0.66 0.66 76 1006.3
20260906073904 89 337 1.0 3.0 0.00 0.66 0.66 76 1006.3
20260906073404 90 268 2.0 3.0 0.00 0.66 0.66 74 1006.4
20260906072904 90 293 0.0 3.0 0.00 0.66 0.66 75 1006.3
20260906072404 90 310 1.0 2.0 0.00 0.66 0.66 75 1006.3
20260906071904 90 258 0.0 2.0 0.00 0.66 0.66 76 1006.3
20260906070904 89 345 0.0 2.0 0.00 0.66 0.66 76 1006.5
20260906070403 89 212 1.0 3.0 0.00 0.66 0.66 76 1006.4
20260906065904 89 288 1.0 2.0 0.00 0.66 0.66 76 1006.5
20260906065404 89 293 0.0 2.0 0.00 0.66 0.66 76 1006.5
20260906064904 89 275 0.0 2.0 0.00 0.66 0.66 76 1006.5
20260906063904 90 304 1.0 3.0 0.00 0.66 0.66 76 1006.6
20260906063404 90 264 0.0 1.0 0.00 0.66 0.66 76 1006.7
20260906062404 89 278 0.0 3.0 0.00 0.66 0.66 77 1006.8
20260906061904 89 271 0.0 1.0 0.00 0.66 0.66 77 1006.9
20260906061404 89 296 0.0 1.0 0.00 0.66 0.66 78 1007.0
20260906060404 88 244 0.0 2.0 0.00 0.66 0.66 79 1007.1
20260906055904 88 282 0.0 3.0 0.00 0.66 0.66 79 1007.1
20260906055405 87 271 1.0 3.0 0.00 0.66 0.66 79 1007.3
20260906054904 88 294 0.0 2.0 0.00 0.66 0.66 79 1007.3
20260906054404 88 349 0.0 2.0 0.00 0.66 0.66 79 1007.3
20260906053904 87 308 1.0 3.0 0.00 0.66 0.66 79 1007.4
20260906053404 87 228 1.0 3.0 0.00 0.66 0.66 80 1007.4
20260906052904 87 261 0.0 3.0 0.00 0.66 0.66 80 1007.4
20260906051903 87 246 1.0 3.0 0.00 0.66 0.66 80 1007.5
20260906051403 88 344 2.0 5.0 0.00 0.66 0.66 78 1007.5
20260906045904 86 243 2.0 5.0 0.00 0.66 0.66 80 1007.7
20260906045404 85 344 1.0 3.0 0.00 0.66 0.66 81 1007.9
20260906044904 85 330 2.0 5.0 0.00 0.66 0.66 80 1008.0
20260906044404 86 326 2.0 5.0 0.00 0.66 0.66 80 1008.1
20260906043904 86 296 0.0 3.0 0.00 0.66 0.66 80 1008.1
20260906043404 86 275 1.0 3.0 0.00 0.66 0.66 80 1008.1
20260906042904 86 294 0.0 6.0 0.00 0.66 0.66 81 1008.2
20260906041904 86 338 1.0 5.0 0.00 0.66 0.66 80 1008.3
20260906041404 87 11 1.0 3.0 0.00 0.66 0.66 80 1008.3
20260906040904 86 275 0.0 2.0 0.00 0.66 0.66 82 1008.2
20260906035904 86 275 2.0 5.0 0.00 0.66 0.66 81 1008.4
20260906035403 85 350 1.0 3.0 0.00 0.66 0.66 81 1008.4
20260906034904 85 338 1.0 3.0 0.00 0.66 0.66 82 1008.4
20260906033904 84 173 2.0 3.0 0.00 0.66 0.66 84 1008.5
20260906033404 84 255 1.0 2.0 0.00 0.66 0.66 85 1008.6
20260906032904 84 50 2.0 3.0 0.00 0.66 0.66 85 1008.6
20260906032404 84 318 1.0 3.0 0.00 0.66 0.66 85 1008.6
20260906031904 84 248 0.0 5.0 0.00 0.66 0.66 85 1008.7
20260906031404 84 248 1.0 7.0 0.00 0.66 0.66 85 1008.7
20260906030904 84 267 1.0 3.0 0.00 0.66 0.66 85 1008.7
20260906030404 83 275 0.0 3.0 0.00 0.66 0.66 87 1008.8
20260906025904 83 330 0.0 3.0 0.00 0.66 0.66 88 1008.9
20260906025403 83 275 2.0 3.0 0.00 0.66 0.66 87 1008.9
20260906024404 82 247 1.0 3.0 0.00 0.66 0.66 88 1009.0
20260906023904 82 268 0.0 1.0 0.00 0.66 0.66 88 1009.0
20260906023404 82 259 0.0 1.0 0.00 0.66 0.66 89 1009.1
20260906022904 81 255 1.0 3.0 0.00 0.66 0.66 89 1009.0
20260906022404 81 261 1.0 2.0 0.00 0.66 0.66 89 1009.1
20260906021904 81 318 0.0 1.0 0.00 0.66 0.66 90 1008.9
20260906021404 81 356 0.0 1.0 0.00 0.66 0.66 91 1009.0
20260906020904 80 32 0.0 2.0 0.00 0.66 0.66 91 1009.0
20260906015904 81 341 2.0 3.0 0.00 0.66 0.66 90 1009.0
20260906015404 81 262 0.0 2.0 0.00 0.66 0.66 89 1008.9
20260906014904 81 252 0.0 1.0 0.00 0.66 0.66 89 1008.9
20260906013903 81 266 0.0 5.0 0.00 0.66 0.66 89 1008.7
20260906013404 81 252 0.0 2.0 0.00 0.66 0.66 89 1008.8
20260906012904 81 269 0.0 3.0 0.00 0.66 0.66 89 1008.9
20260906012404 81 252 1.0 3.0 0.00 0.66 0.66 89 1008.9
20260906011903 81 284 1.0 2.0 0.00 0.66 0.66 89 1009.0
20260906011404 81 271 0.0 2.0 0.00 0.66 0.66 89 1009.0
20260906010904 81 251 0.0 3.0 0.00 0.66 0.66 89 1009.0
20260906010404 81 262 1.0 3.0 0.00 0.66 0.66 88 1009.0
20260906005903 81 278 0.0 3.0 0.00 0.66 0.66 88 1009.0
20260906004903 81 254 0.0 2.0 0.00 0.66 0.66 88 1008.8
20260906004404 81 280 0.0 1.0 0.00 0.66 0.66 89 1008.8
20260906003904 81 263 1.0 3.0 0.00 0.66 0.66 88 1008.8
20260906003404 81 346 0.0 1.0 0.00 0.66 0.66 88 1008.6
20260906002904 81 342 0.0 1.0 0.00 0.66 0.66 89 1008.7
20260906002404 81 341 0.0 0.0 0.00 0.66 0.66 88 1008.6
20260906001904 80 343 0.0 0.0 0.00 0.66 0.66 88 1008.6
20260906000904 80 347 0.0 0.0 0.00 0.66 0.66 88 1008.5
20260906000404 80 348 0.0 0.0 0.00 0.66 0.66 88 1008.4
20260905235904 80 19 1.0 3.0 0.00 0.66 0.66 88 1008.3
20260905235404 80 52 1.0 2.0 0.00 0.66 0.66 88 1008.2
20260905234904 80 10 1.0 2.0 0.00 0.66 0.66 88 1008.2
20260905234404 80 15 2.0 2.0 0.00 0.66 0.66 88 1008.1
20260905233904 80 333 0.0 3.0 0.00 0.66 0.66 89 1008.0
20260905233404 80 337 1.0 2.0 0.00 0.66 0.66 89 1008.0
20260905232903 80 339 1.0 1.0 0.00 0.66 0.66 90 1007.9
20260905232404 80 339 0.0 1.0 0.00 0.66 0.66 91 1007.8
20260905231904 80 340 0.0 1.0 0.00 0.66 0.66 91 1007.8
20260905231404 80 342 0.0 1.0 0.00 0.66 0.66 91 1007.7
20260905230904 80 28 1.0 3.0 0.00 0.66 0.66 91 1007.7
20260905230404 80 318 0.0 2.0 0.00 0.66 0.66 92 1007.7
20260905225904 80 317 0.0 1.0 0.00 0.66 0.66 92 1007.6
20260905225404 80 314 0.0 0.0 0.00 0.66 0.66 92 1007.5
20260905224904 80 314 0.0 0.0 0.00 0.66 0.66 92 1007.4
20260905224404 80 314 0.0 0.0 0.00 0.66 0.66 92 1007.4
20260905223903 80 314 0.0 2.0 0.01 0.66 0.66 93 1007.4
20260905222904 79 323 0.0 0.0 0.01 0.66 0.66 93 1007.3
20260905221903 79 324 0.0 1.0 0.01 0.66 0.66 94 1007.2
20260905221403 79 327 0.0 1.0 0.01 0.66 0.66 94 1007.2
20260905220904 79 328 0.0 2.0 0.01 0.66 0.66 94 1007.2
20260905220404 78 333 0.0 0.0 0.01 0.66 0.66 94 1007.1
20260905215904 78 333 0.0 0.0 0.01 0.66 0.66 94 1007.1
20260905215404 78 333 0.0 0.0 0.01 0.66 0.66 94 1007.2
20260905214404 78 337 1.0 2.0 0.01 0.66 0.66 94 1007.1
20260905213904 78 341 0.0 1.0 0.00 0.65 0.65 95 1007.1
20260905212904 78 339 1.0 2.0 0.00 0.65 0.65 95 1007.1
20260905212404 78 336 0.0 1.0 0.00 0.65 0.65 96 1007.0
20260905211903 77 338 1.0 2.0 0.02 0.65 0.65 96 1007.0
20260905211404 78 333 1.0 2.0 0.03 0.65 0.65 96 1006.9
20260905210904 78 340 0.0 1.0 0.05 0.65 0.65 97 1006.9
20260905210403 78 341 0.0 1.0 0.07 0.65 0.65 97 1007.0
20260905205904 78 341 0.0 1.0 0.08 0.65 0.65 97 1006.9
20260905205404 78 341 0.0 2.0 0.10 0.65 0.65 97 1006.9
20260905204904 78 340 0.0 2.0 0.10 0.65 0.65 97 1006.9
20260905203904 78 308 0.0 2.0 0.12 0.65 0.65 97 1007.0
20260905203403 78 339 0.0 2.0 0.15 0.65 0.65 97 1007.1
20260905202904 78 334 1.0 3.0 0.21 0.65 0.65 97 1007.0
20260905201904 79 325 0.0 1.0 0.37 0.63 0.63 97 1007.0
20260905201404 79 326 0.0 1.0 0.44 0.62 0.62 97 1007.1
20260905200904 79 326 0.0 2.0 0.47 0.60 0.60 97 1007.0
20260905200404 79 325 1.0 2.0 0.52 0.58 0.58 96 1007.1
20260905195905 79 324 0.0 1.0 0.53 0.57 0.57 96 1007.0
20260905195404 79 324 0.0 1.0 0.53 0.55 0.55 96 1007.0
20260905194904 79 324 0.0 1.0 0.55 0.55 0.55 96 1006.9
20260905193904 79 8 0.0 1.0 0.53 0.53 0.53 96 1006.9
20260905193404 79 10 0.0 1.0 0.50 0.50 0.50 95 1006.9
20260905192904 79 21 0.0 1.0 0.44 0.44 0.44 95 1006.9
20260905192404 79 8 1.0 5.0 0.38 0.38 0.38 95 1006.9
20260905191904 80 46 2.0 5.0 0.26 0.26 0.26 95 1006.9
20260905191404 80 318 1.0 2.0 0.18 0.18 0.18 95 1006.9
20260905190903 81 39 2.0 3.0 0.13 0.13 0.13 94 1006.8
20260905185904 82 20 1.0 2.0 0.04 0.04 0.04 93 1006.8
20260905185404 82 342 3.0 5.0 0.02 0.02 0.02 92 1006.8
20260905184904 83 32 2.0 3.0 0.00 0.00 0.00 90 1006.8
20260905184404 83 324 2.0 3.0 0.00 0.00 0.00 88 1006.9
20260905183904 84 296 0.0 1.0 0.00 0.00 0.00 86 1006.9
20260905183404 84 291 0.0 1.0 0.00 0.00 0.00 86 1006.9
20260905182904 84 292 0.0 1.0 0.00 0.00 0.00 86 1007.0
20260905181904 83 321 1.0 2.0 0.00 0.00 0.00 86 1007.0
20260905181404 83 279 1.0 3.0 0.00 0.00 0.00 85 1007.0
20260905180404 84 329 0.0 1.0 0.00 0.00 0.00 86 1007.0
20260905175904 84 326 1.0 2.0 0.00 0.00 0.00 85 1007.1
20260905174904 84 297 0.0 1.0 0.00 0.00 0.00 86 1007.3
20260905174404 84 337 0.0 1.0 0.00 0.00 0.00 87 1007.3
20260905173904 83 342 0.0 2.0 0.00 0.00 0.00 88 1007.3
20260905173404 84 38 1.0 3.0 0.00 0.00 0.00 87 1007.5
20260905172904 84 13 1.0 3.0 0.00 0.00 0.00 86 1007.4
20260905172405 84 314 1.0 2.0 0.00 0.00 0.00 85 1007.3
20260905171904 84 55 2.0 3.0 0.00 0.00 0.00 85 1007.1
20260905171404 84 63 2.0 3.0 0.00 0.00 0.00 84 1007.2
20260905170904 84 296 0.0 1.0 0.00 0.00 0.00 84 1007.0
20260905165404 84 318 0.0 3.0 0.00 0.00 0.00 84 1007.1
20260905164904 84 16 0.0 2.0 0.00 0.00 0.00 84 1007.2
20260905164403 84 323 0.0 2.0 0.00 0.00 0.00 84 1007.2
20260905163904 84 302 1.0 3.0 0.00 0.00 0.00 84 1007.3
20260905163404 84 48 2.0 3.0 0.00 0.00 0.00 83 1007.4
20260905162904 84 21 1.0 3.0 0.00 0.00 0.00 83 1007.4
20260905162404 84 324 1.0 3.0 0.00 0.00 0.00 83 1007.4
20260905161904 84 298 1.0 3.0 0.00 0.00 0.00 82 1007.5
20260905161404 84 323 0.0 2.0 0.00 0.00 0.00 84 1007.5
20260905160904 84 19 1.0 3.0 0.00 0.00 0.00 84 1007.5
20260905160404 84 352 1.0 3.0 0.00 0.00 0.00 83 1007.4
20260905155903 84 41 0.0 6.0 0.00 0.00 0.00 83 1007.5
20260905155404 84 66 1.0 6.0 0.00 0.00 0.00 83 1007.6
20260905154904 84 335 1.0 3.0 0.00 0.00 0.00 83 1007.6
20260905154404 84 324 1.0 3.0 0.00 0.00 0.00 84 1007.8